Location: Unspecified
(42.0334°N, 93.6656°W)
Time: 00:36:44
(UTC-05:00)

Amateur Radio Satellites - All Passes

Search period start: 25 October 2014 00:06
Search period end: 26 October 2014 00:06
Location: Unspecified, 42.0334°N, 93.6656°W

Satellite Date Start Highest point End Downlink Frequencies (MHz)
Time Altitude Azimuth
UOSAT-12 25 Oct 00:42:07 00:46:30 39° 244° (WSW) 00:50:47 437.025 FM, 437.400 FM
RS-15 25 Oct 01:01:49 01:11:51 40° 322° (NW) 01:21:59 29.354 - 29.394 USB, Beacon 29.352 USB
Oscar 10/S400 25 Oct 01:16:08 02:17:22 23° 239° (WSW) 05:00:09 145.825 - 145.975 CW/USB, Beacon 145.810 USB
MaSat-1 25 Oct 01:27:40 01:30:37 19° 305° (NW) 01:33:21 437.345 MHz
Oscar 19 25 Oct 01:56:14 02:00:14 23° 94° (E) 02:04:13 437.125 CW, 437.150 USB
AO-27 25 Oct 02:15:19 02:18:01 14° 90° (E) 02:20:41 436.795 MHz FM
AO-Echo 25 Oct 02:35:38 02:40:17 30° 95° (E) 02:44:54 ?
Oscar 16 25 Oct 02:41:16 02:46:21 62° 101° (ESE) 02:51:25 437.025 USB, Beacon 2401.1428
JAS-1B 25 Oct 02:43:35 02:50:12 58° 102° (ESE) 02:58:04 435.800 - 435.900 CW/SSB
Uribyol 2 25 Oct 03:01:15 03:06:09 40° 98° (E) 03:11:00 436.500 FM
PCSat 25 Oct 03:06:14 03:09:21 16° 104° (ESE) 03:12:29 145.825 MHz
ITAMSAT 1 25 Oct 03:07:16 03:12:15 43° 99° (E) 03:17:11 435.822 SSB
RS-15 25 Oct 03:20:33 03:28:28 22° 356° (N) 03:36:30 29.354 - 29.394 USB, Beacon 29.352 USB
Gurwin Techsat 1B 25 Oct 03:28:06 03:33:00 36° 97° (E) 03:37:51 435.225 FM
Oscar 19 25 Oct 03:34:55 03:39:45 43° 290° (WNW) 03:44:34 437.125 CW, 437.150 USB
TMSAT-1 25 Oct 03:39:16 03:44:05 34° 96° (E) 03:48:52 436.925 FM
AO-27 25 Oct 03:52:49 03:58:03 72° 286° (WNW) 04:03:14 436.795 MHz FM
AO-Echo 25 Oct 04:14:13 04:19:03 36° 292° (WNW) 04:23:51 ?
AO-7 25 Oct 04:20:31 04:26:50 23° 93° (E) 04:33:08 29.400 - 29.500 MHz
Oscar 16 25 Oct 04:21:53 04:25:12 18° 299° (WNW) 04:28:30 437.025 USB, Beacon 2401.1428
Uosat F 25 Oct 04:22:59 04:24:41 12° 89° (E) 04:26:23 435.120 FM
Sapphire 25 Oct 04:24:12 04:29:34 70° 116° (ESE) 04:34:58 437.095 MHz 1200 baud AX-25 AFSK
JAS-1B 25 Oct 04:35:07 04:40:34 28° 296° (WNW) 04:46:47 435.800 - 435.900 CW/SSB
Uribyol 2 25 Oct 04:41:08 04:45:25 26° 295° (WNW) 04:49:40 436.500 FM
PCSat 25 Oct 04:46:42 04:52:06 73° 301° (WNW) 04:57:33 145.825 MHz
ITAMSAT 1 25 Oct 04:47:17 04:51:29 25° 296° (WNW) 04:55:39 435.822 SSB
Gurwin Techsat 1B 25 Oct 05:08:16 05:12:50 30° 294° (WNW) 05:17:22 435.225 FM
OPAL 25 Oct 05:08:39 05:13:41 56° 70° (ENE) 05:18:40 ?
TMSAT-1 25 Oct 05:19:17 05:23:55 31° 293° (WNW) 05:28:32 436.925 FM
RS-15 25 Oct 05:35:58 05:45:38 33° 31° (NNE) 05:55:33 29.354 - 29.394 USB, Beacon 29.352 USB
AO-27 25 Oct 05:36:16 05:36:37 10° 304° (NW) 05:36:57 436.795 MHz FM
JAS-2 25 Oct 05:56:03 06:03:06 36° 94° (E) 06:10:06 435.800 - 435.900 CW/SSB, 435.910 FM
Uosat F 25 Oct 05:59:00 06:04:04 81° 285° (WNW) 06:09:06 435.120 FM
Sapphire 25 Oct 06:09:27 06:13:31 21° 316° (NW) 06:17:36 437.095 MHz 1200 baud AX-25 AFSK
AO-7 25 Oct 06:12:03 06:20:21 76° 291° (WNW) 06:28:40 29.400 - 29.500 MHz
PCSat 25 Oct 06:33:34 06:36:30 15° 322° (NW) 06:39:28 145.825 MHz
OPAL 25 Oct 06:49:23 06:52:52 18° 266° (W) 06:56:20 ?
STRAND 1 25 Oct 06:53:34 06:58:35 57° 72° (ENE) 07:03:38 ?
Hamsat 25 Oct 06:58:26 07:02:37 65° 101° (E) 07:06:48 145.90 MHz
Uosat F 25 Oct 07:40:44 07:42:01 11° 303° (WNW) 07:43:17 435.120 FM
JAS-2 25 Oct 07:40:46 07:48:13 52° 291° (WNW) 07:55:43 435.800 - 435.900 CW/SSB, 435.910 FM
RS-15 25 Oct 07:48:27 07:59:41 88° 58° (ENE) 08:11:24 29.354 - 29.394 USB, Beacon 29.352 USB
Saudisat 1A 25 Oct 07:50:17 07:54:32 52° 119° (ESE) 07:58:49 436.775 MHz
SO-67 25 Oct 07:58:04 08:01:18 36° 98° (E) 08:04:30 435.3500 MHz FM
AO-7 25 Oct 08:06:35 08:11:50 19° 312° (NW) 08:17:05 29.400 - 29.500 MHz
HO-68 25 Oct 08:33:47 08:35:39 11° 86° (E) 08:37:31 435.675 MHz FM
STRAND 1 25 Oct 08:34:46 08:38:08 17° 268° (W) 08:41:31 ?
Hamsat 25 Oct 08:36:28 08:38:02 12° 297° (WNW) 08:39:35 145.90 MHz
JAS-2 25 Oct 09:29:15 09:31:35 12° 311° (NW) 09:33:55 435.800 - 435.900 CW/SSB, 435.910 FM
Saudisat 1A 25 Oct 09:31:01 09:34:23 21° 317° (NW) 09:37:46 436.775 MHz
SO-67 25 Oct 09:32:17 09:33:56 13° 294° (WNW) 09:35:35 435.3500 MHz FM
MaSat-1 25 Oct 09:36:36 09:39:13 71° 64° (ENE) 09:41:37 437.345 MHz
RS-15 25 Oct 10:02:23 10:10:40 25° 258° (WSW) 10:19:15 29.354 - 29.394 USB, Beacon 29.352 USB
PANSAT 25 Oct 10:03:54 10:04:25 10° 185° (S) 10:04:55 not established
UKube-1 25 Oct 10:10:22 10:13:48 22° 95° (E) 10:17:12 145.840 MHz, 145.915 MHz
HO-68 25 Oct 10:17:21 10:24:33 71° 104° (ESE) 10:31:42 435.675 MHz FM
FUNcube-1 25 Oct 10:50:37 10:54:03 23° 94° (E) 10:57:25 145.950 - 145.970 MHz USB
Oscar 11 25 Oct 10:50:49 10:55:05 59° 101° (E) 10:59:19 145.825 FM, Beacon 2401.500 USB
Sapphire 25 Oct 11:30:18 11:32:37 13° 36° (NE) 11:34:56 437.095 MHz 1200 baud AX-25 AFSK
Oscar 10/S400 25 Oct 11:39:29 11:55:35 19° 151° (SSE) 12:07:26 145.825 - 145.975 CW/USB, Beacon 145.810 USB
ZACube-1 25 Oct 11:41:40 11:45:57 90° 278° (W) 11:50:07 437.345 MHz
UKube-1 25 Oct 11:46:06 11:50:02 34° 291° (WNW) 11:53:58 145.840 MHz, 145.915 MHz
PCSat 25 Oct 11:51:55 11:55:37 18° 42° (NE) 11:59:18 145.825 MHz
KITSAT 1 25 Oct 11:55:23 12:02:42 40° 109° (ESE) 12:10:02 435.175 FM
HO-68 25 Oct 12:06:05 12:11:37 25° 303° (WNW) 12:17:08 435.675 MHz FM
Oscar 16 25 Oct 12:22:55 12:25:09 13° 59° (ENE) 12:27:23 437.025 USB, Beacon 2401.1428
FUNcube-1 25 Oct 12:26:45 12:30:26 29° 291° (WNW) 12:34:03 145.950 - 145.970 MHz USB
Oscar 11 25 Oct 12:28:36 12:30:46 14° 297° (WNW) 12:32:57 145.825 FM, Beacon 2401.500 USB
ISS 25 Oct 12:55:50 12:59:02 47° 140° (SE) 13:02:16 145.800 FM
Sapphire 25 Oct 13:11:49 13:17:13 60° 57° (ENE) 13:22:34 437.095 MHz 1200 baud AX-25 AFSK
Oscar 19 25 Oct 13:13:21 13:17:59 35° 68° (ENE) 13:22:37 437.125 CW, 437.150 USB
JAS-1B 25 Oct 13:31:09 13:36:44 45° 69° (ENE) 13:42:05 435.800 - 435.900 CW/SSB
SO-50 25 Oct 13:33:05 13:37:35 88° 303° (WNW) 13:42:15 436.795 FM
AO-27 25 Oct 13:33:22 13:37:27 24° 64° (ENE) 13:41:34 436.795 MHz FM
PCSat 25 Oct 13:34:17 13:39:45 85° 242° (WSW) 13:45:09 145.825 MHz
AO-Echo 25 Oct 13:49:01 13:53:31 38° 69° (ENE) 13:58:11 ?
KITSAT 1 25 Oct 13:50:06 13:57:54 51° 309° (NW) 14:05:46 435.175 FM
Oscar 16 25 Oct 13:58:35 14:03:45 88° 255° (WSW) 14:08:56 437.025 USB, Beacon 2401.1428
Uribyol 2 25 Oct 14:19:23 14:24:32 64° 73° (ENE) 14:29:43 436.500 FM
ITAMSAT 1 25 Oct 14:25:34 14:30:44 68° 73° (ENE) 14:35:57 435.822 SSB
ISS 25 Oct 14:32:53 14:35:51 29° 338° (NNW) 14:38:49 145.800 FM
Gurwin Techsat 1B 25 Oct 14:49:30 14:54:42 59° 72° (ENE) 14:59:56 435.225 FM
Oscar 19 25 Oct 14:52:54 14:57:20 29° 265° (W) 15:01:47 437.125 CW, 437.150 USB
UOSAT-12 25 Oct 14:53:02 14:57:33 57° 119° (ESE) 15:02:11 437.025 FM, 437.400 FM
Sapphire 25 Oct 14:56:20 15:00:08 20° 254° (WSW) 15:03:55 437.095 MHz 1200 baud AX-25 AFSK
TMSAT-1 25 Oct 15:00:19 15:05:28 55° 72° (ENE) 15:10:40 436.925 FM
AO-27 25 Oct 15:11:42 15:16:40 45° 261° (W) 15:21:42 436.795 MHz FM
SO-50 25 Oct 15:16:12 15:18:52 15° 323° (NW) 15:21:35 436.795 FM
AO-7 25 Oct 15:19:55 15:27:10 36° 58° (ENE) 15:34:25 29.400 - 29.500 MHz
PCSat 25 Oct 15:20:57 15:22:16 11° 259° (WSW) 15:23:35 145.825 MHz
JAS-1B 25 Oct 15:23:02 15:27:41 23° 266° (W) 15:32:10 435.800 - 435.900 CW/SSB
AO-Echo 25 Oct 15:28:23 15:32:23 25° 266° (W) 15:36:31 ?
Uosat F 25 Oct 15:35:54 15:39:20 19° 62° (ENE) 15:42:47 435.120 FM
KITSAT 1 25 Oct 15:50:28 15:55:29 17° 335° (NNW) 16:00:31 435.175 FM
Uribyol 2 25 Oct 16:01:16 16:04:26 16° 269° (W) 16:07:37 436.500 FM
ITAMSAT 1 25 Oct 16:07:49 16:10:43 15° 270° (W) 16:13:38 435.822 SSB
ISS 25 Oct 16:11:12 16:13:20 16° 358° (N) 16:15:28 145.800 FM
JAS-2 25 Oct 16:11:37 16:14:59 15° 53° (NE) 16:18:31 435.800 - 435.900 CW/SSB, 435.910 FM
Saudisat 1A 25 Oct 16:16:29 16:20:47 47° 52° (NE) 16:25:03 436.775 MHz
Gurwin Techsat 1B 25 Oct 16:31:34 16:35:03 18° 269° (W) 16:38:34 435.225 FM
UOSAT-12 25 Oct 16:34:26 16:38:04 22° 318° (NW) 16:41:44 437.025 FM, 437.400 FM
TMSAT-1 25 Oct 16:42:02 16:45:44 19° 268° (W) 16:49:26 436.925 FM
AO-7 25 Oct 17:11:32 17:19:36 56° 257° (WSW) 17:27:44 29.400 - 29.500 MHz
Uosat F 25 Oct 17:12:45 17:17:40 56° 259° (W) 17:22:39 435.120 FM
OPAL 25 Oct 17:20:12 17:22:23 13° 92° (E) 17:24:33 ?
ISS 25 Oct 17:48:10 17:50:54 23° 18° (NNE) 17:53:39 145.800 FM
Hamsat 25 Oct 17:51:59 17:56:02 48° 73° (ENE) 18:00:04 145.90 MHz
KITSAT 1 25 Oct 17:52:11 17:55:03 12° 6° (N) 17:57:54 435.175 FM
JAS-2 25 Oct 17:52:48 17:58:45 81° 74° (ENE) 18:05:35 435.800 - 435.900 CW/SSB, 435.910 FM
Saudisat 1A 25 Oct 17:56:52 18:00:00 19° 249° (WSW) 18:03:08 436.775 MHz
SO-67 25 Oct 18:32:18 18:34:09 14° 67° (ENE) 18:36:02 435.3500 MHz FM
OPAL 25 Oct 18:56:50 19:01:48 73° 288° (WNW) 19:06:42 ?
STRAND 1 25 Oct 19:04:47 19:08:22 19° 92° (E) 19:11:55 ?
HO-68 25 Oct 19:04:51 19:06:46 11° 47° (NE) 19:08:41 435.675 MHz FM
ISS 25 Oct 19:24:33 19:27:54 78° 216° (SW) 19:31:14 145.800 FM
Hamsat 25 Oct 19:29:56 19:32:14 14° 269° (W) 19:34:33 145.90 MHz
JAS-2 25 Oct 19:41:19 19:44:50 16° 275° (W) 19:48:35 435.800 - 435.900 CW/SSB, 435.910 FM
KITSAT 1 25 Oct 19:47:33 19:54:01 25° 36° (NE) 20:00:26 435.175 FM
SO-67 25 Oct 20:03:42 20:06:50 33° 263° (W) 20:10:00 435.3500 MHz FM
SO-50 25 Oct 20:24:46 20:27:52 17° 38° (NE) 20:31:00 436.795 FM
STRAND 1 25 Oct 20:42:51 20:47:52 54° 289° (WNW) 20:52:51 ?
HO-68 25 Oct 20:45:59 20:52:54 55° 67° (ENE) 20:59:52 435.675 MHz FM
UKube-1 25 Oct 21:06:29 21:09:47 22° 65° (ENE) 21:13:06 145.840 MHz, 145.915 MHz
KITSAT 1 25 Oct 21:42:28 21:50:36 86° 59° (ENE) 21:58:41 435.175 FM
UOSAT-12 25 Oct 21:44:12 21:45:44 11° 32° (NNE) 21:47:16 437.025 FM, 437.400 FM
Oscar 11 25 Oct 21:46:05 21:50:14 48° 73° (ENE) 21:54:24 145.825 FM, Beacon 2401.500 USB
FUNcube-1 25 Oct 21:47:19 21:50:53 23° 67° (ENE) 21:54:25 145.950 - 145.970 MHz USB
SO-50 25 Oct 22:04:13 22:09:06 89° 237° (WSW) 22:13:59 436.795 FM
RS-15 25 Oct 22:12:15 22:22:49 56° 113° (ESE) 22:33:18 29.354 - 29.394 USB, Beacon 29.352 USB
HO-68 25 Oct 22:34:52 22:40:54 29° 265° (W) 22:47:01 435.675 MHz FM
ZACube-1 25 Oct 22:37:52 22:42:27 76° 75° (ENE) 22:46:59 437.345 MHz
UKube-1 25 Oct 22:41:44 22:45:44 36° 262° (W) 22:49:47 145.840 MHz, 145.915 MHz
MaSat-1 25 Oct 23:13:36 23:16:41 21° 108° (ESE) 23:19:35 437.345 MHz
UOSAT-12 25 Oct 23:22:17 23:26:56 55° 53° (NE) 23:31:30 437.025 FM, 437.400 FM
FUNcube-1 25 Oct 23:22:49 23:27:03 36° 263° (W) 23:31:15 145.950 - 145.970 MHz USB
Oscar 11 25 Oct 23:24:08 23:26:41 15° 269° (W) 23:29:14 145.825 FM, Beacon 2401.500 USB
KITSAT 1 25 Oct 23:39:32 23:44:59 20° 258° (WSW) 23:50:26 435.175 FM
SO-50 25 Oct 23:47:42 23:48:56 11° 254° (WSW) 23:50:09 436.795 FM
